KOLZ

Details ICAO KOLZ
Name OELWEIN MUNI
Region United States
Timezone America/Chicago (UTC-5.0)
Plans Departing 0
Arriving 0
Stats Elevation 1,076 ft / 328 m (AMSL)
Location 42.681174° -91.974326°
Runways 2
Magnetic Variation 0.617° W
Sunrise 2018-05-22 10:40:31 UTC / 2018-05-22 05:40:31 Local
Sunset 2018-05-23 01:31:30 UTC / 2018-05-22 20:31:30 Local
Advertisement - Login to hide

Runways

ID Width Length Bearing (true) Bearing (mag) Surface Threshold Offset Overrun Length
13 75 ft / 23 m 3,998 ft / 1,219 m 134.62° 135.24° Concrete 0 ft / 0 m 100 ft / 30 m
18 85 ft / 26 m 1,724 ft / 525 m 182.45° 183.07° Grass 0 ft / 0 m 0 ft / 0 m
31 75 ft / 23 m 3,998 ft / 1,219 m 314.63° 315.25° Concrete 0 ft / 0 m 0 ft / 0 m
36 85 ft / 26 m 1,724 ft / 525 m 2.45° 3.07° Grass 0 ft / 0 m 0 ft / 0 m

Map

Weather


0- 5 10 15 20 25 30 35+ Temperature / ° C

Clouds and Precipitation
Forecast for 2018-05-22 12:00 UTC. Updated 3 hours ago

Ground ~20,000 ft ~40,000 ft Winds

METAR

KOLZ 221415Z AUTO 32009KT 10SM FEW009 OVC015 17/15 A3007 RMK AO2

TAF

Not found

Frequencies

Recorded 119.67 MHz AWOS 3
Approach 118.90 MHz WATERLOO APP/DEP
Unicom 122.80 MHz CTAF/UNICOM
Warning: Do not use this data for real-world aviation or navigation. No guarantee of current accuracy is given.